VU3IZK-14 Weather Reports


Display with metric or nautical units.
time (UTC)temp
F
wind
direction
speed
MPH
gust
MPH
rain 1hr
in
rain 24hr
in
rain mn
in
humidity
%
barometer
mb
20260507033626 92 63 0.0 0.0 0.00 0.00 0.00 34
20260507032124 85 86 0.0 0.0 0.00 0.00 0.00 45
20260507030627 85 8 0.0 0.0 0.00 0.00 0.00 45
20260507025123 85 66 0.0 0.0 0.00 0.00 0.00 45
20260507023625 84 338 0.0 0.0 0.00 0.00 0.00 47
20260507022123 82 277 0.0 0.0 0.00 0.00 0.00 50
20260507020625 81 0 0.0 0.0 0.00 0.00 0.00 51
20260507015123 79 240 1.0 0.0 0.00 0.00 0.00 54
20260507013623 79 312 0.0 0.0 0.00 0.00 0.00 54
20260507012125 78 0 0.0 0.0 0.00 0.00 0.00 55
20260507010626 78 269 0.0 0.0 0.00 0.00 0.00 56
20260507005125 78 0 0.0 0.0 0.00 0.00 0.00 55
20260507003623 78 265 1.0 0.0 0.00 0.00 0.00 54
20260507002124 79 234 1.0 0.0 0.00 0.00 0.00 54
20260507000624 79 269 1.0 0.0 0.00 0.00 0.00 53
20260506235123 79 297 0.0 0.0 0.00 0.00 0.00 54
20260506233625 79 206 1.0 0.0 0.00 0.00 0.00 54
20260506232123 79 227 1.0 0.0 0.00 0.00 0.00 54
20260506230625 79 266 0.0 0.0 0.00 0.00 0.00 53
20260506225125 79 242 1.0 0.0 0.00 0.00 0.00 53
20260506223626 80 244 1.0 0.0 0.00 0.00 0.00 52
20260506222123 80 244 1.0 0.0 0.00 0.00 0.00 52
20260506215123 80 225 0.0 0.0 0.00 0.00 0.00 52
20260506213626 81 259 1.0 0.0 0.00 0.00 0.00 50
20260506212123 81 240 1.0 0.0 0.00 0.00 0.00 50
20260506210625 81 235 1.0 0.0 0.00 0.00 0.00 50
20260506205124 81 258 0.0 0.0 0.00 0.00 0.00 50
20260506203626 81 275 0.0 0.0 0.00 0.00 0.00 49
20260506202125 81 0 0.0 0.0 0.00 0.00 0.00 49
20260506200624 82 286 0.0 0.0 0.00 0.00 0.00 47
20260506195123 82 261 0.0 0.0 0.00 0.00 0.00 46
20260506193624 82 232 1.0 0.0 0.00 0.00 0.00 46
20260506192127 82 186 0.0 0.0 0.00 0.00 0.00 46
20260506183623 83 285 0.0 0.0 0.00 0.00 0.00 44
20260506182124 83 0 0.0 0.0 0.00 0.00 0.00 45